Resia Pass, Italy

8:40 AM CEST on May 24, 2018 (GMT +0200)
Resia Pass

Weather History for LIVE - September, 2013

Change the Weather History Date:

Sunday, September 22, 2013

  Actual Average Record
Temperature  
Mean Temperature 54 °F -  
Max Temperature 64 °F 57 °F 68 °F (2006)
Min Temperature 44 °F 41 °F 33 °F (2008)
Degree Days  
Heating Degree Days 11    
Growing Degree Days 4 (Base 50)    
Moisture  
Dew Point 37 °F    
Average Humidity 57    
Maximum Humidity 87    
Minimum Humidity 24    
Precipitation  
Precipitation 0.00 in - - ()
Sea Level Pressure  
Sea Level Pressure 30.37 in    
Wind  
Wind Speed 5 mph ()    
Max Wind Speed 8 mph    
Max Gust Speed 18 mph    
Averages and records for this station are not official NWS values.
T = Trace of Precipitation, MM = Missing Value Source: Averaged Metar Reports

Daily Weather History Graph

Daily Weather History Graph

Search for Another Location

Airport or City:

Astronomy

Sep. 22, 2013 Rise Set
Actual Time 7:04 AM CEST 7:15 PM CEST
Civil Twilight 6:34 AM CEST 7:45 PM CEST
Nautical Twilight 5:58 AM CEST 8:21 PM CEST
Astronomical Twilight 5:22 AM CEST 8:58 PM CEST
Moon 8:39 PM CEST (9/22) 10:22 AM CEST (9/22)
Length of Visible Light 13h 11m
Length of Day
12h 10m
Waning Gibbous, 90% of the Moon is Illuminated
Sep 22
Waning Gibbous
Sep 27
Last Quarter
Oct 5
New
Oct 12
First Quarter
Oct 19
Full

Hourly Weather History & Observations

Time (CEST) Temp. Windchill Dew Point Humidity Pressure Visibility Wind Dir Wind Speed Gust Speed Precip Events Conditions
12:55 AM 48.2 °F - 42.8 °F 82% 30.36 in - NNW 6.9 mph - N/A   Clear
1:55 AM 48.2 °F - 42.8 °F 82% 30.39 in - NNW 8.1 mph - N/A   Clear
2:55 AM 48.2 °F - 42.8 °F 82% 30.39 in - NNW 5.8 mph - N/A   Clear
4:55 AM 46.4 °F 43.5 °F 39.2 °F 76% 30.39 in - NNW 5.8 mph - N/A   Clear
5:55 AM 44.6 °F 40.7 °F 39.2 °F 81% 30.39 in - NNW 6.9 mph - N/A   Clear
6:55 AM 44.6 °F 41.4 °F 41.0 °F 87% 30.39 in - NNW 5.8 mph - N/A   Clear
7:55 AM 44.6 °F 43.1 °F 37.4 °F 76% 30.39 in - North 3.5 mph - N/A   Clear
8:55 AM 44.6 °F 42.2 °F 39.2 °F 81% 30.39 in - North 4.6 mph - N/A   Clear
9:55 AM 48.2 °F - 37.4 °F 66% 30.39 in - North 5.8 mph - N/A   Clear
10:55 AM 53.6 °F - 39.2 °F 58% 30.39 in - North 5.8 mph - N/A   Clear
11:55 AM 60.8 °F - 32.0 °F 34% 30.36 in - North 5.8 mph - N/A   Clear
12:55 PM 62.6 °F - 28.4 °F 27% 30.36 in - NE 6.9 mph 18.4 mph N/A   Clear
1:55 PM 64.4 °F - 26.6 °F 24% 30.36 in - NE 6.9 mph 18.4 mph N/A   Clear
2:55 PM 64.4 °F - 30.2 °F 28% 30.36 in - NE 5.8 mph - N/A   Clear
3:55 PM 64.4 °F - 33.8 °F 32% 30.36 in - North 3.5 mph - N/A   Clear
4:55 PM 62.6 °F - 33.8 °F 34% 30.36 in - NNE 4.6 mph - N/A   Clear
5:55 PM 60.8 °F - 33.8 °F 36% 30.36 in - North 3.5 mph - N/A   Clear
6:55 PM 60.8 °F - 33.8 °F 36% 30.36 in - NNE 5.8 mph - N/A   Clear
7:55 PM 57.2 °F - 35.6 °F 44% 30.36 in - NW 4.6 mph - N/A   Clear
8:55 PM 55.4 °F - 39.2 °F 54% 30.36 in - Calm Calm - N/A   Clear
9:55 PM 53.6 °F - 39.2 °F 58% 30.36 in - Calm Calm - N/A   Clear
10:55 PM 51.8 °F - 41.0 °F 67% 30.39 in - NNW 6.9 mph - N/A   Clear